Regional Weather Roundup
Issued by NWS

Home | Current Version | Previous Version | Text Only | Print | Product List | Glossary Off
Versions: 1 2 3 4 5 6 7 8 9 10 11 12 13 14 15 16 17 18 19 20 21 22 23 24 25 26 27 28 29 30 31 32 33 34 35 36 37 38 39 40 41 42 43 44 45 46 47 48 49 50

000
ASUS43 KDTX 261210
RWRMI
MICHIGAN HOURLY REGIONAL WEATHER ROUNDUP
NATIONAL WEATHER SERVICE DETROIT/PONTIAC MI
700 AM EST MON JAN 26 2015

NOTE: "FAIR" INDICATES FEW OR NO CLOUDS BELOW 12,000 FEET WITH NO
SIGNIFICANT WEATHER AND/OR OBSTRUCTION TO VISIBILITY.

MIZ047>049-052>055-059>063-066>070-074>076-081>083-261300-
SOUTHEAST LOWER MICHIGAN

CITY           SKY/WX    TMP DP  RH WIND       PRES   REMARKS
ADRIAN         CLEAR     10   5  80 N9        29.92R
6HR MIN TEMP:   9; 6HR MAX TEMP:  18;

ALMA           PTCLDY     6   4  91 CALM      29.99R
ANN ARBOR      CLEAR     11   5  77 N7        29.91S
BAD AXE        PTCLDY    -1  -3  89 CALM      29.97S
6HR MIN TEMP:  -1; 6HR MAX TEMP:  17;

DETROIT CITY   CLEAR     11   3  70 NE8       29.93S
6HR MIN TEMP:  11; 6HR MAX TEMP:  17;

DETROIT        MOCLDY    11   4  73 N8        29.92F
6HR MIN TEMP:  11; 6HR MAX TEMP:  18;

FLINT          CLEAR     12   6  77 NE7       29.95R
6HR MIN TEMP:  12; 6HR MAX TEMP:  17;

GROSSE ILE     CLEAR     10   5  79 N10       29.90F WCI  -3
HILLSDALE      CLEAR      9   6  89 N3        29.88R
6HR MIN TEMP:   9; 6HR MAX TEMP:  16;

HOWELL         CLEAR      8   6  92 CALM      29.91S
6HR MIN TEMP:   8; 6HR MAX TEMP:  14;


CITY           SKY/WX    TMP DP  RH WIND       PRES   REMARKS
JACKSON        CLEAR      8   5  87 N5        29.91R
6HR MIN TEMP:   8; 6HR MAX TEMP:  15;

LAMBERTVILLE   CLEAR     14   3  62 CALM      29.91R
LANSING        CLEAR      9   5  84 N6        29.96R
6HR MIN TEMP:   8; 6HR MAX TEMP:  14;

LAPEER         NOT AVBL
MASON          CLEAR      9   6  88 CALM      29.93R
MONROE         CLEAR     10   3  72 N5        29.89S
MT. CLEMENS    CLEAR      8   3  81 N9        29.91F
6HR MIN TEMP:   8; 6HR MAX TEMP:  15;

PONTIAC        PTCLDY     7   3  84 NE6       29.89F
6HR MIN TEMP:   6; 6HR MAX TEMP:  14;

PORT HOPE        N/A     17   9  70 E12       29.97S
6HR MIN TEMP:  17; 6HR MAX TEMP:  20;

PORT HURON     CLEAR      3   1  92 N3        29.94S
TRI CITIES     CLEAR      7   3  84 N8        29.99R
6HR MIN TEMP:   7; 6HR MAX TEMP:  14; 6HR PCP: TRACE;

YPSILANTI      CLEAR     12   4  70 NE7       29.92S
6HR MIN TEMP:  12; 6HR MAX TEMP:  21;

$$
MIZ043>046-050>051-056>058-064>065-071>073-077>080-261300-
SOUTHWEST LOWER MICHIGAN

CITY           SKY/WX    TMP DP  RH WIND       PRES   REMARKS
BATTLE CREEK   CLEAR     10   5  80 N5        29.95R
6HR MIN TEMP:  10; 6HR MAX TEMP:  17;

BENTON HARBOR  PTCLDY    10   8  92 CALM      29.97S
6HR MIN TEMP:   9; 6HR MAX TEMP:  16;

BIG RAPIDS     PTCLDY     0  -2  90 CALM      29.96S
6HR MIN TEMP:  -1; 6HR MAX TEMP:   8;

COLDWATER      CLEAR      7   5  90 NW3       29.93R
6HR MIN TEMP:   7; 6HR MAX TEMP:  15;

HOLLAND        PTCLDY    11   6  81 CALM      29.99S
6HR MIN TEMP:  11; 6HR MAX TEMP:  16;

GRAND RAPIDS   PTCLDY     8   5  87 NE3       29.97S
6HR MIN TEMP:   8; 6HR MAX TEMP:  15;

KALAMAZOO      CLEAR     10   6  84 N5        29.95R
6HR MIN TEMP:   7; 6HR MAX TEMP:  16;

MARSHALL       CLEAR      8   6  89 NW3       29.94R
MUSKEGON       PTCLDY    10   5  80 NE3       29.99F
6HR MIN TEMP:  10; 6HR MAX TEMP:  14;

$$
MIZ016>042-261300-
NORTHERN LOWER MICHIGAN

CITY           SKY/WX    TMP DP  RH WIND       PRES   REMARKS
ALPENA         FLURRIES  -2  -7  79 CALM      30.02R
6HR MIN TEMP:  -6; 6HR MAX TEMP:   0; 6HR PCP:  0.01;

BEAVER ISLAND  PTCLDY     1  -3  87 CALM      29.99F
6HR MIN TEMP:  -6; 6HR MAX TEMP:   1;

BELLAIRE       PTCLDY    -7 -12  80 CALM      30.02R
6HR MIN TEMP:  -8; 6HR MAX TEMP:  -3;

CADILLAC       PTCLDY    -6 -13  71 CALM      29.93S
CHARLEVOIX     CLEAR     -2  -5  86 E3        30.02S
6HR MIN TEMP:  -3; 6HR MAX TEMP:   3;

FRANKFORT      PTSUNNY    3   0  88 SE3       29.98F
GAYLORD        PTCLDY   -11 -15  82 CALM      29.94S
6HR MIN TEMP: -15; 6HR MAX TEMP:  -2;

GRAYLING       PTCLDY   -12 -18  75 CALM      29.97S
6HR MIN TEMP: -15; 6HR MAX TEMP: -10;

HARBOR SPRINGS PTCLDY    -7 -11  81 CALM      30.00S
HOUGHTON LAKE  PTCLDY    -8 -13  78 CALM      29.96S
6HR MIN TEMP:  -9; 6HR MAX TEMP:  -1;

MANISTEE       MOCLDY     1  -2  85 E5        29.99R
OSCODA         FLURRIES  13  10  86 NW5       29.99S
PELLSTON       MOCLDY   -15 -20  78 CALM      30.02S
6HR MIN TEMP: -16; 6HR MAX TEMP: -11;

TRAVERSE CITY  MOCLDY     1  -4  79 CALM      30.00R
6HR MIN TEMP:   0; 6HR MAX TEMP:   8;

$$
MIZ007>008-015-261300-
EASTERN UPPER MICHIGAN

CITY           SKY/WX    TMP DP  RH WIND       PRES   REMARKS
KINROSS        CLOUDY    -2  -6  84 E5        30.01S
6HR MIN TEMP:  -8; 6HR MAX TEMP:  -2;

MACKINAC ISLAN MOCLDY     9   3  78 S5        30.00S
6HR MIN TEMP:   1; 6HR MAX TEMP:  10;

S. S. MARIE    MOCLDY    -2  -8  76 E3        30.03R
6HR MIN TEMP:  -5; 6HR MAX TEMP:  -2;

$$
MIZ004>006-011>014-085-261300-
CENTRAL UPPER MICHIGAN

CITY           SKY/WX    TMP DP  RH WIND       PRES   REMARKS
MANISTIQUE     CLOUDY    19  14  78 S9        29.96S
6HR MIN TEMP:  -5; 6HR MAX TEMP:  19;

ESCANABA       CLOUDY     1   0  92 CALM      29.94F
6HR MIN TEMP:  -2; 6HR MAX TEMP:   1;

MENOMINEE      CLOUDY     9   7  92 CALM      29.94F
6HR MIN TEMP:   3; 6HR MAX TEMP:   9;

SAWYER-GWINN   MOCLDY     5   1  85 SW6       29.88F
$$
MIZ001>003-009>011-084-261300-
WESTERN UPPER MICHIGAN

CITY           SKY/WX    TMP DP  RH WIND       PRES   REMARKS
IRON MOUNTAIN  CLOUDY     6   2  83 CALM      29.87F
6HR MIN TEMP:  -3; 6HR MAX TEMP:   6;

HOUGHTON       PTCLDY    11   4  73 S8        29.80F
6HR MIN TEMP:   9; 6HR MAX TEMP:  11;

COPPER HARBOR    N/A     17   9  70 CALM      29.85F
6HR MIN TEMP:  13; 6HR MAX TEMP:  18;

IRONWOOD       CLOUDY    16  12  86 S10G18    29.73F
6HR MIN TEMP:  16; 6HR MAX TEMP:  18;

$$

ABBREVIATIONS USED IN REMARKS
   TC - TEMPERATURE IN CELSIUS
  WCI - WIND CHILL INDEX
   HX - HEAT INDEX
  VSB - VISIBILITY



USA.gov is the U.S. government's official web portal to all federal, state and local government web resources and services.